Flag for Germany Weather past 2 weeks in Weiden in der Oberpfalz, Bavaria, Germany

Now
62 °F

Scattered clouds.


Feels Like: 62 °F
Forecast: 47 / 67 °F
Wind: 1 mph from East

Location: Weiden

Current Time: Oct 1, 2014 at 6:56:14 PM

Latest Report: Oct 1, 2014 at 6:00 PM


Visibility: 13 mi

Pressure: 30.30 "Hg

Humidity: 83%

Dew point: 57 °F

Location of Weiden in der OberpfalzLocation

Historic Weather in Weiden in der Oberpfalz — Graph

°F

Weiden in der Oberpfalz temperature yesterday

Maximum temperature yesterday: 67 °F (at 4:00 PM)
Minimum temperature yesterday: 53 °F (at 4:00 AM)
Average temperature yesterday: 59 °F

Past Weeks' High & Low Weather Summary

 TemperatureHumidityPressure
High74 °F (Sep 19, 3:00 PM)100% (Sep 20, 11:00 PM)30.42 "Hg (Sep 20, 11:00 PM)
Low34 °F (Sep 24, 6:00 AM)49% (Sep 28, 3:00 PM)29.88 "Hg (Sep 21, 6:00 PM)
Average56 °F84%30.11 "Hg
* Reported Sep 16 5:00 PM — Oct 1 5:00 PM, Weiden in der Oberpfalz, Weather by CustomWeather, © 2014

Note: Actual official high and low records may vary slightly from our data, if they occured in-between our weather recording intervals... More about our weather records

Advertising

Weiden in der Oberpfalz weather history for previous 24 hours

 ConditionsComfort  
Time TempWeatherWind HumidityBarometerVisibility
5:00 PM
Oct 1
63 °FOvercast.2 mph77%30.29 "Hg15 mi
4:00 PM62 °FOvercast.2 mph84%30.28 "Hg10 mi
3:00 PM60 °FLight rain. Fog.3 mph87%30.29 "Hg2 mi
2:00 PM64 °FPartly sunny.2 mph77%30.29 "Hg7 mi
1:00 PM64 °FPartly sunny.1 mph81%30.29 "Hg6 mi
12:00 PM63 °FOvercast.2 mph83%30.30 "Hg5 mi
11:00 AM60 °FFog.2 mph89%30.31 "Hg4 mi
10:00 AM59 °FFog.1 mph91%30.30 "Hg4 mi
9:00 AM57 °FFog.1 mph95%30.29 "Hg4 mi
8:00 AM56 °FLow clouds.1 mph99%30.30 "Hg2 mi
7:00 AM55 °FFog.1 mph99%30.29 "Hg2 mi
6:00 AM56 °FFog.1 mph99%30.29 "Hg1 mi
5:00 AM56 °FLow clouds.1 mph99%30.30 "Hg1 mi
4:00 AM56 °FLow clouds.1 mph99%30.30 "Hg0 mi
3:00 AM56 °FLow clouds.1 mph99%30.30 "Hg2 mi
2:00 AM57 °FFog.No wind98%30.30 "Hg2 mi
1:00 AM58 °FOvercast.No wind95%30.29 "Hg6 mi
12:00 AM59 °FOvercast.1 mph93%30.30 "Hg6 mi
11:00 PM
Sep 30
59 °FOvercast.1 mph90%30.29 "Hg9 mi
10:00 PM61 °FOvercast.1 mph86%30.29 "Hg12 mi
9:00 PM61 °FOvercast.1 mph86%30.29 "Hg12 mi
8:00 PM62 °FOvercast.2 mph86%30.29 "Hg10 mi
7:00 PM63 °FOvercast.1 mph82%30.27 "Hg14 mi
6:00 PM64 °FOvercast.2 mph76%30.27 "Hg11 mi
Weather by CustomWeather, © 2014

See weather overviewHow to use our weather pages